H1 CPF 2 NER 2022 11 27 9 331 01 glonass138 H2 1805301 9138 43508 2022 11 27 0 0 0 2022 11 30 23 45 0 900 1 1 0 0 0 1 H9 10 0 59910 0.00000 0 9753278.474 -4991510.081 -23031555.653 10 0 59910 900.00000 0 11597270.040 -2866045.069 -22536784.797 10 0 59910 1800.00000 0 13531540.885 -945492.193 -21604305.149 10 0 59910 2700.00000 0 15497490.450 733041.790 -20252333.623 10 0 59910 3600.00000 0 17431944.023 2144135.309 -18507215.560 10 0 59910 4500.00000 0 19269696.018 3274865.844 -16402907.747 10 0 59910 5400.00000 0 20946154.942 4125093.524 -13980315.542 10 0 59910 6300.00000 0 22399979.974 4707204.602 -11286496.926 10 0 59910 7200.00000 0 23575599.383 5045327.259 -8373748.905 10 0 59910 8100.00000 0 24425505.941 5174054.346 -5298593.783 10 0 59910 9000.00000 0 24912233.771 5136728.030 -2120684.751 10 0 59910 9900.00000 0 25009934.165 4983359.574 1098348.059 10 0 59910 10800.00000 0 24705484.757 4768272.657 4296088.905 10 0 59910 11700.00000 0 23999085.701 4547570.083 7410542.258 10 0 59910 12600.00000 0 22904317.982 4376531.029 10381329.830 10 0 59910 13500.00000 0 21447661.246 4307048.778 13150855.924 10 0 59910 14400.00000 0 19667491.051 4385217.118 15665418.844 10 0 59910 15300.00000 0 17612596.989 4649167.276 17876247.167 10 0 59910 16200.00000 0 15340282.920 5127246.759 19740441.308 10 0 59910 17100.00000 0 12914127.753 5836617.207 21221802.627 10 0 59910 18000.00000 0 10401499.215 6782330.902 22291534.462 10 0 59910 18900.00000 0 7870923.125 7956925.716 22928801.873 10 0 59910 19800.00000 0 5389416.542 9340556.822 23121139.488 10 0 59910 20700.00000 0 3019894.811 10901661.122 22864699.479 10 0 59910 21600.00000 0 818759.358 12598128.314 22164334.584 10 0 59910 22500.00000 0 -1166234.188 14378931.334 21033513.994 10 0 59910 23400.00000 0 -2897739.375 16186149.555 19494072.897 10 0 59910 24300.00000 0 -4350140.819 17957301.535 17575799.556 10 0 59910 25200.00000 0 -5510379.764 19627890.730 15315866.822 10 0 59910 26100.00000 0 -6378249.028 21134058.133 12758118.116 10 0 59910 27000.00000 0 -6966145.242 22415230.788 9952220.863 10 0 59910 27900.00000 0 -7298289.143 23416654.729 6952703.171 10 0 59910 28800.00000 0 -7409447.122 24091705.172 3817892.325 10 0 59910 29700.00000 0 -7343208.635 24403875.834 608775.836 10 0 59910 30600.00000 0 -7149893.096 24328362.486 -2612192.278 10 0 59910 31500.00000 0 -6884175.848 23853172.902 -5782315.824 10 0 59910 32400.00000 0 -6602534.983 22979715.438 -8839886.488 10 0 59910 33300.00000 0 -6360628.541 21722840.663 -11725394.536 10 0 59910 34200.00000 0 -6210714.552 20110333.847 -14382695.356 10 0 59910 35100.00000 0 -6199224.482 18181879.499 -16760108.270 10 0 59910 36000.00000 0 -6364593.924 15987541.561 -18811425.538 10 0 59910 36900.00000 0 -6735443.115 13585823.372 -20496811.557 10 0 59910 37800.00000 0 -7329184.762 11041389.069 -21783574.863 10 0 59910 38700.00000 0 -8151118.269 8422542.012 -22646798.285 10 0 59910 39600.00000 0 -9194048.659 5798565.798 -23069815.642 10 0 59910 40500.00000 0 -10438446.206 3237038.612 -23044526.561 10 0 59910 41400.00000 0 -11853140.033 801232.316 -22571544.199 10 0 59910 42300.00000 0 -13396516.447 -1452296.163 -21660173.849 10 0 59910 43200.00000 0 -15018171.728 -3475822.185 -20328223.595 10 0 59910 44100.00000 0 -16660950.247 -5232192.830 -18601651.247 10 0 59910 45000.00000 0 -18263282.609 -6696117.697 -16514054.768 10 0 59910 45900.00000 0 -19761726.232 -7854959.184 -14106016.277 10 0 59910 46800.00000 0 -21093602.275 -8708991.240 -11424312.309 10 0 59910 47700.00000 0 -22199618.784 -9271117.617 -8521005.630 10 0 59910 48600.00000 0 -23026370.550 -9566063.221 -5452436.018 10 0 59910 49500.00000 0 -23528611.201 -9629074.037 -2278129.372 10 0 59910 50400.00000 0 -23671202.539 -9504181.475 940353.787 10 0 59910 51300.00000 0 -23430659.525 -9242105.164 4140608.330 10 0 59910 52200.00000 0 -22796226.183 -8897883.203 7260590.133 10 0 59910 53100.00000 0 -21770437.209 -8528330.133 10239814.067 10 0 59910 54000.00000 0 -20369141.479 -8189430.037 13020521.402 10 0 59910 54900.00000 0 -18620985.995 -7933774.719 15548794.366 10 0 59910 55800.00000 0 -16566381.245 -7808154.938 17775596.549 10 0 59910 56700.00000 0 -14255990.347 -7851406.215 19657719.552 10 0 59910 57600.00000 0 -11748804.027 -8092600.003 21158618.002 10 0 59910 58500.00000 0 -9109880.555 -8549656.670 22249117.207 10 0 59910 59400.00000 0 -6407843.521 -9228439.137 22907980.137 10 0 59910 60300.00000 0 -3712240.234 -10122366.156 23122322.973 10 0 59910 61200.00000 0 -1090869.446 -11212562.528 22887871.115 10 0 59910 62100.00000 0 1392811.708 -12468541.395 22209050.418 10 0 59910 63000.00000 0 3682094.733 -13849391.484 21098911.331 10 0 59910 63900.00000 0 5729141.335 -15305421.052 19578886.572 10 0 59910 64800.00000 0 7496731.849 -16780191.002 17678386.062 10 0 59910 65700.00000 0 8959568.014 -18212853.067 15434235.870 10 0 59910 66600.00000 0 10105075.923 -19540695.653 12889971.049 10 0 59910 67500.00000 0 10933675.828 -20701790.754 10094995.216 10 0 59910 68400.00000 0 11458507.707 -21637630.509 7103622.521 10 0 59910 69300.00000 0 11704624.502 -22295641.843 3974020.480 10 0 59910 70200.00000 0 11707687.516 -22631472.354 767074.295 10 0 59910 71100.00000 0 11512219.794 -22610949.883 -2454804.770 10 0 59910 72000.00000 0 11169492.204 -22211631.857 -5628902.815 10 0 59910 72900.00000 0 10735132.835 -21423877.809 -8693433.709 10 0 59910 73800.00000 0 10266562.172 -20251398.737 -11588751.377 10 0 59910 74700.00000 0 9820363.971 -18711259.352 -14258519.120 10 0 59910 75600.00000 0 9449704.426 -16833332.560 -16650812.320 10 0 59910 76500.00000 0 9201909.925 -14659228.856 -18719132.374 10 0 59910 77400.00000 0 9116306.679 -12240745.601 -20423311.716 10 0 59910 78300.00000 0 9222414.060 -9637901.292 -21730292.423 10 0 59910 79200.00000 0 9538568.127 -6916637.209 -22614763.601 10 0 59910 80100.00000 0 10071033.364 -4146282.582 -23059645.804 10 0 59910 81000.00000 0 10813639.788 -1396888.852 -23056413.908 10 0 59910 81900.00000 0 11747960.366 1263456.330 -22605253.064 10 0 59910 82800.00000 0 12844020.879 3771224.229 -21715045.558 10 0 59910 83700.00000 0 14061512.090 6069842.345 -20403189.601 10 0 59910 84600.00000 0 15351453.090 8111795.631 -18695254.099 10 0 59910 85500.00000 0 16658235.899 9860345.600 -16624476.527 10 0 59911 0.00000 0 17921965.433 11290797.496 -14231114.023 10 0 59911 900.00000 0 19080997.463 12391265.241 -11561658.979 10 0 59911 1800.00000 0 20074566.539 13162902.200 -8667937.570 10 0 59911 2700.00000 0 20845396.096 13619592.499 -5606104.229 10 0 59911 3600.00000 0 21342179.671 13787115.440 -2435554.544 10 0 59911 4500.00000 0 21521829.870 13701820.302 782223.733 10 0 59911 5400.00000 0 21351400.672 13408868.171 3984839.249 10 0 59911 6300.00000 0 20809602.250 12960115.608 7110202.393 10 0 59911 7200.00000 0 19887844.586 12411729.765 10097724.125 10 0 59911 8100.00000 0 18590765.712 11821635.688 12889485.386 10 0 59911 9000.00000 0 16936221.816 11246903.408 15431354.736 10 0 59911 9900.00000 0 14954738.928 10741184.796 17674032.885 10 0 59911 10800.00000 0 12688448.059 10352307.981 19574004.400 10 0 59911 11700.00000 0 10189547.088 10120130.437 21094378.635 10 0 59911 12600.00000 0 7518352.249 10074741.031 22205603.999 10 0 59911 13500.00000 0 4741018.945 10235086.777 22886042.175 10 0 59911 14400.00000 0 1927025.192 10608082.407 23122391.336 10 0 59911 15300.00000 0 -853479.020 11188240.810 22909950.161 10 0 59911 16200.00000 0 -3532347.652 11957840.811 22252717.272 10 0 59911 17100.00000 0 -6046029.845 12887626.367 21163323.594 10 0 59911 18000.00000 0 -8337969.531 13938009.088 19662798.164 10 0 59911 18900.00000 0 -10360714.346 15060724.826 17780170.946 10 0 59911 19800.00000 0 -12077646.478 16200875.845 15551919.247 10 0 59911 20700.00000 0 -13464263.415 17299273.523 13021267.480 10 0 59911 21600.00000 0 -14508955.280 18294983.463 10237352.952 10 0 59911 22500.00000 0 -15213246.325 19127965.867 7254273.210 10 0 59911 23400.00000 0 -15591490.608 19741699.413 4130033.259 10 0 59911 24300.00000 0 -15670035.026 20085677.116 925413.181 10 0 59911 25200.00000 0 -15485885.542 20117667.676 -2297221.337 10 0 59911 26100.00000 0 -15084933.657 19805645.451 -5475141.511 10 0 59911 27000.00000 0 -14519819.111 19129306.196 -8546486.170 10 0 59911 27900.00000 0 -13847520.360 18081103.229 -11451475.574 10 0 59911 28800.00000 0 -13126776.033 16666759.205 -14133583.459 10 0 59911 29700.00000 0 -12415447.701 14905231.086 -16540643.580 10 0 59911 30600.00000 0 -11767936.572 12828129.125 -18625868.519 10 0 59911 31500.00000 0 -11232764.140 10478614.035 -20348760.506 10 0 59911 32400.00000 0 -10850419.517 7909818.410 -21675896.604 10 0 59911 33300.00000 0 -10651564.438 5182858.414 -22581573.328 10 0 59911 34200.00000 0 -10655671.477 2364518.873 -23048298.773 10 0 59911 35100.00000 0 -10870152.386 -475291.850 -23067123.528 10 0 59911 36000.00000 0 -11290012.626 -3266211.505 -22637804.842 10 0 59911 36900.00000 0 -11898045.898 -5940107.544 -21768801.722 10 0 59911 37800.00000 0 -12665559.775 -8433663.912 -20477101.830 10 0 59911 38700.00000 0 -13553601.333 -10690764.675 -18787884.107 10 0 59911 39600.00000 0 -14514630.773 -12664576.587 -16734024.081 10 0 59911 40500.00000 0 -15494572.415 -14319245.590 -14355451.666 10 0 59911 41400.00000 0 -16435156.708 -15631138.254 -11698373.886 10 0 59911 42300.00000 0 -17276454.787 -16589578.031 -8814377.591 10 0 59911 43200.00000 0 -17959499.098 -17197047.339 -5759429.362 10 0 59911 44100.00000 0 -18428879.990 -17468848.601 -2592791.808 10 0 59911 45000.00000 0 -18635209.152 -17432239.813 624122.863 10 0 59911 45900.00000 0 -18537346.347 -17125082.147 3828939.967 10 0 59911 46800.00000 0 -18104295.708 -16594057.293 6959527.360 10 0 59911 47700.00000 0 -17316691.693 -15892530.134 9955195.099 10 0 59911 48600.00000 0 -16167811.879 -15078147.023 12757866.770 10 0 59911 49500.00000 0 -14664073.445 -14210270.838 15313200.150 10 0 59911 50400.00000 0 -12824991.747 -13347360.616 17571635.770 10 0 59911 51300.00000 0 -10682601.602 -12544405.792 19489353.589 10 0 59911 52200.00000 0 -8280364.160 -11850522.593 21029119.752 10 0 59911 53100.00000 0 -5671603.590 -11306813.337 22161007.426 10 0 59911 54000.00000 0 -2917537.057 -10944578.385 22862978.194 10 0 59911 54900.00000 0 -84978.359 -10783955.808 23121312.962 10 0 59911 55800.00000 0 2756190.880 -10833046.113 22930883.980 10 0 59911 56700.00000 0 5535678.892 -11087559.212 22295262.510 10 0 59911 57600.00000 0 8185461.254 -11530999.175 21226659.445 10 0 59911 58500.00000 0 10642367.917 -12135379.855 19745699.283 10 0 59911 59400.00000 0 12850472.984 -12862442.267 17881030.831 10 0 59911 60300.00000 0 14763188.295 -13665323.462 15668781.101 10 0 59911 61200.00000 0 16344973.684 -14490607.374 13151861.981 10 0 59911 62100.00000 0 17572592.615 -15280671.736 10379142.232 10 0 59911 63000.00000 0 18435860.621 -15976232.207 7404500.205 10 0 59911 63900.00000 0 18937855.138 -16518976.002 4285775.473 10 0 59911 64800.00000 0 19094578.066 -16854173.085 1083639.833 10 0 59911 65700.00000 0 18934085.556 -16933153.487 -2139589.948 10 0 59911 66600.00000 0 18495122.274 -16715544.692 -5321173.591 10 0 59911 67500.00000 0 17825318.569 -16171173.047 -8399178.227 10 0 59911 68400.00000 0 16979027.730 -15281547.374 -11313693.639 10 0 59911 69300.00000 0 16014895.861 -14040860.798 -14008006.958 10 0 59911 70200.00000 0 14993268.278 -12456467.396 -16429712.982 10 0 59911 71100.00000 0 13973543.061 -10548812.680 -18531737.816 10 0 59911 72000.00000 0 13011584.388 -8350820.267 -20273255.462 10 0 59911 72900.00000 0 12157305.390 -5906760.072 -21620479.542 10 0 59911 73800.00000 0 11452522.570 -3270645.173 -22547315.132 10 0 59911 74700.00000 0 10929172.011 -504224.282 -23035858.583 10 0 59911 75600.00000 0 10607961.889 2325346.600 -23076736.485 10 0 59911 76500.00000 0 10497517.134 5148056.639 -22669278.061 10 0 59911 77400.00000 0 10594051.203 7893710.873 -21821518.532 10 0 59911 78300.00000 0 10881577.661 10494608.819 -20550034.156 10 0 59911 79200.00000 0 11332651.667 12888120.539 -18879612.724 10 0 59911 80100.00000 0 11909609.249 15019054.108 -16842766.341 10 0 59911 81000.00000 0 12566251.553 16841717.353 -14479096.138 10 0 59911 81900.00000 0 13249902.690 18321589.498 -11834521.259 10 0 59911 82800.00000 0 13903754.265 19436534.453 -8960387.054 10 0 59911 83700.00000 0 14469397.725 20177506.723 -5912469.598 10 0 59911 84600.00000 0 14889437.845 20548721.872 -2749895.633 10 0 59911 85500.00000 0 15110077.279 20567285.717 466001.238 10 0 59912 0.00000 0 15083563.349 20262299.052 3672865.855 10 0 59912 900.00000 0 14770393.862 19673476.122 6808527.263 10 0 59912 1800.00000 0 14141189.056 18849336.070 9812197.355 10 0 59912 2700.00000 0 13178150.485 17845043.124 12625645.236 10 0 59912 3600.00000 0 11876044.943 16719986.823 15194320.541 10 0 59912 4500.00000 0 10242671.339 15535203.727 17468406.000 10 0 59912 5400.00000 0 8298789.853 14350748.659 19403779.060 10 0 59912 6300.00000 0 6077514.992 13223125.457 20962864.450 10 0 59912 7200.00000 0 3623196.403 12202884.610 22115361.568 10 0 59912 8100.00000 0 989832.398 11332488.129 22838833.027 10 0 59912 9000.00000 0 -1760919.554 10644530.870 23119143.209 10 0 59912 9900.00000 0 -4562054.274 10160392.705 22950738.274 10 0 59912 10800.00000 0 -7343757.909 9889378.114 22336761.998 10 0 59912 11700.00000 0 -10036070.539 9828379.522 21289004.652 10 0 59912 12600.00000 0 -12571562.832 9962078.963 19827685.106 10 0 59912 13500.00000 0 -14887916.388 10263680.180 17981069.454 10 0 59912 14400.00000 0 -16930300.957 10696140.988 15784932.430 10 0 59912 15300.00000 0 -18653449.620 11213854.598 13281871.058 10 0 59912 16200.00000 0 -20023345.357 11764709.424 10520482.943 10 0 59912 17100.00000 0 -21018448.308 12292440.556 7554424.455 10 0 59912 18000.00000 0 -21630412.029 12739173.358 4441366.865 10 0 59912 18900.00000 0 -21864258.559 13048051.017 1241870.778 10 0 59912 19800.00000 0 -21738004.950 13165833.914 -1981798.840 10 0 59912 20700.00000 0 -21281757.186 13045359.561 -5166893.062 10 0 59912 21600.00000 0 -20536310.262 12647757.528 -8251410.084 10 0 59912 22500.00000 0 -19551314.237 11944324.119 -11175311.888 10 0 59912 23400.00000 0 -18383084.650 10917976.129 -13881701.521 10 0 59912 24300.00000 0 -17092150.837 9564220.915 -16317937.153 10 0 59912 25200.00000 0 -15740646.617 7891600.806 -18436660.484 10 0 59912 26100.00000 0 -14389654.314 5921592.321 -20196719.038 10 0 59912 27000.00000 0 -13096614.665 3687963.798 -21563964.417 10 0 59912 27900.00000 0 -11912911.889 1235617.946 -22511911.309 10 0 59912 28800.00000 0 -10881735.392 -1381032.499 -23022245.015 10 0 59912 29700.00000 0 -10036307.414 -4100088.395 -23085168.465 10 0 59912 30600.00000 0 -9398550.125 -6854503.048 -22699582.850 10 0 59912 31500.00000 0 -8978246.982 -9574639.157 -21873099.266 10 0 59912 32400.00000 0 -8772732.182 -12190938.054 -20621881.907 10 0 59912 33300.00000 0 -8767119.829 -14636590.934 -18970326.451 10 0 59912 34200.00000 0 -8935061.895 -16850101.813 -16950580.334 10 0 59912 35100.00000 0 -9240001.895 -18777636.690 -14601914.413 10 0 59912 36000.00000 0 -9636870.612 -20375062.303 -11969958.250 10 0 59912 36900.00000 0 -10074151.796 -21609590.744 -9105813.825 10 0 59912 37800.00000 0 -10496230.321 -22460962.631 -6065064.699 10 0 59912 38700.00000 0 -10845923.580 -22922120.718 -2906699.617 10 0 59912 39600.00000 0 -11067089.234 -22999346.881 308028.676 10 0 59912 40500.00000 0 -11107199.299 -22711857.842 3516787.498 10 0 59912 41400.00000 0 -10919771.922 -22090877.429 6657368.434 10 0 59912 42300.00000 0 -10466558.244 -21178224.907 9668888.439 10 0 59912 43200.00000 0 -9719391.920 -20024479.037 12492964.875 10 0 59912 44100.00000 0 -8661623.004 -18686795.047 15074842.017 10 0 59912 45000.00000 0 -7289075.196 -17226466.017 17364447.534 10 0 59912 45900.00000 0 -5610485.304 -15706330.678 19317358.988 10 0 59912 46800.00000 0 -3647405.212 -14188135.814 20895662.096 10 0 59912 47700.00000 0 -1433568.954 -12729963.233 22068684.596 10 0 59912 48600.00000 0 986250.386 -11383828.449 22813591.895 10 0 59912 49500.00000 0 3557848.199 -10193551.034 23115833.217 10 0 59912 50400.00000 0 6219595.175 -9192985.324 22969429.584 10 0 59912 51300.00000 0 8904761.761 -8404685.248 22377097.839 10 0 59912 52200.00000 0 11544065.294 -7839059.031 21350207.759 10 0 59912 53100.00000 0 14068335.161 -7494049.293 19908572.335 10 0 59912 54000.00000 0 16411186.209 -7355352.165 18080074.295 10 0 59912 54900.00000 0 18511589.780 -7397166.482 15900135.040 10 0 59912 55800.00000 0 20316235.404 -7583441.895 13411035.266 10 0 59912 56700.00000 0 21781584.583 -7869573.510 10661099.529 10 0 59912 57600.00000 0 22875530.496 -8204471.569 7703759.888 10 0 59912 58500.00000 0 23578593.643 -8532918.536 4596516.576 10 0 59912 59400.00000 0 23884602.880 -8798113.306 1399815.907 10 0 59912 60300.00000 0 23800832.897 -8944293.969 -1824132.322 10 0 59912 61200.00000 0 23347592.241 -8919326.877 -5012574.056 10 0 59912 62100.00000 0 22557279.437 -8677150.969 -8103442.107 10 0 59912 63000.00000 0 21472947.431 -8179972.295 -11036574.095 10 0 59912 63900.00000 0 20146437.635 -7400114.415 -13754892.221 10 0 59912 64800.00000 0 18636163.115 -6321444.999 -16205520.971 10 0 59912 65700.00000 0 17004635.315 -4940317.155 -18340820.256 10 0 59912 66600.00000 0 15315839.370 -3265984.841 -20119313.390 10 0 59912 67500.00000 0 13632569.129 -1320474.102 -21506491.842 10 0 59912 68400.00000 0 12013834.237 862085.044 -22475481.429 10 0 59912 69300.00000 0 10512448.212 3236638.427 -23007557.536 10 0 59912 70200.00000 0 9172898.187 5748850.201 -23092500.166 10 0 59912 71100.00000 0 8029584.780 8337139.743 -22728782.832 10 0 59912 72000.00000 0 7105504.643 10935028.260 -21923592.468 10 0 59912 72900.00000 0 6411429.400 13473697.828 -20692680.795 10 0 59912 73800.00000 0 5945613.712 15884656.913 -19060050.606 10 0 59912 74700.00000 0 5694043.109 18102402.016 -17057483.533 10 0 59912 75600.00000 0 5631209.538 20066965.550 -14723918.676 10 0 59912 76500.00000 0 5721380.703 21726244.747 -12104694.181 10 0 59912 77400.00000 0 5920308.631 23038015.480 -9250666.479 10 0 59912 78300.00000 0 6177304.677 23971548.072 -6217224.102 10 0 59912 79200.00000 0 6437592.893 24508758.618 -3063214.995 10 0 59912 80100.00000 0 6644842.155 24644848.656 150191.993 10 0 59912 81000.00000 0 6743769.980 24388407.301 3360689.562 10 0 59912 81900.00000 0 6682708.040 23760972.289 6506035.683 10 0 59912 82800.00000 0 6416021.013 22796068.870 9525255.322 10 0 59912 83700.00000 0 5906276.589 21537767.164 12359817.235 10 0 59912 84600.00000 0 5126074.839 20038818.542 14954763.305 10 0 59912 85500.00000 0 4059459.430 18358449.015 17259768.903 10 0 59913 0.00000 0 2702850.683 16559901.851 19230114.033 10 0 59913 900.00000 0 1065459.406 14707830.786 20827547.976 10 0 59913 1800.00000 0 -830835.292 12865654.666 22021028.509 10 0 59913 2700.00000 0 -2952143.189 11092980.154 22787325.371 10 0 59913 3600.00000 0 -5253727.799 9443201.852 23111473.763 10 0 59913 4500.00000 0 -7681632.821 7961378.501 22987070.252 10 0 59913 5400.00000 0 -10174704.289 6682473.555 22416404.931 10 0 59913 6300.00000 0 -12666926.001 5630033.255 21410426.746 10 0 59913 7200.00000 0 -15089972.479 4815357.256 19988541.903 10 0 59913 8100.00000 0 -17375874.397 4237196.423 18178248.321 10 0 59913 9000.00000 0 -19459686.225 3881990.475 16014612.114 10 0 59913 9900.00000 0 -21282045.156 3724635.547 13539595.240 10 0 59913 10800.00000 0 -22791514.466 3729749.407 10801246.449 10 0 59913 11700.00000 0 -23946612.965 3853380.863 7852770.479 10 0 59913 12600.00000 0 -24717444.902 4045090.942 4751493.365 10 0 59913 13500.00000 0 -25086861.326 4250317.265 1557743.915 10 0 59913 14400.00000 0 -25051103.451 4412920.707 -1666326.436 10 0 59913 15300.00000 0 -24619900.508 4477805.381 -4857961.626 10 0 59913 16200.00000 0 -23816017.732 4393499.575 -7955032.104 10 0 59913 17100.00000 0 -22674273.633 4114586.816 -10897254.009 10 0 59913 18000.00000 0 -21240068.312 3603882.620 -13627371.395 10 0 59913 18900.00000 0 -19567485.505 2834263.360 -16092277.545 10 0 59913 19800.00000 0 -17717048.950 1790068.648 -18244052.763 10 0 59913 20700.00000 0 -15753228.354 468017.018 -20040897.965 10 0 59913 21600.00000 0 -13741800.389 -1122404.545 -21447945.892 10 0 59913 22500.00000 0 -11747175.919 -2959094.247 -22437934.440 10 0 59913 23400.00000 0 -9829805.656 -5008026.268 -22991729.562 10 0 59913 24300.00000 0 -8043772.551 -7224450.068 -23098688.394 10 0 59913 25200.00000 0 -6434670.911 -9554548.368 -22756856.417 10 0 59913 26100.00000 0 -5037859.856 -11937484.760 -21972995.707 10 0 59913 27000.00000 0 -3877162.632 -14307755.866 -20762444.504 10 0 59913 27900.00000 0 -2964064.447 -16597750.430 -19148811.463 10 0 59913 28800.00000 0 -2297440.600 -18740409.134 -17163510.957 10 0 59913 29700.00000 0 -1863824.397 -20671874.938 -14845148.711 10 0 59913 30600.00000 0 -1638201.889 -22334024.205 -12238769.716 10 0 59913 31500.00000 0 -1585298.527 -23676773.706 -9394983.034 10 0 59913 32400.00000 0 -1661302.345 -24660068.067 -6368980.284 10 0 59913 33300.00000 0 -1815950.138 -25255465.407 -3219466.672 10 0 59913 34200.00000 0 -1994888.022 -25447255.577 -7525.157 10 0 59913 35100.00000 0 -2142206.346 -25233064.910 3204564.421 10 0 59913 36000.00000 0 -2203041.717 -24623922.675 6354528.575 10 0 59913 36900.00000 0 -2126136.165 -23643786.864 9381302.554 10 0 59913 37800.00000 0 -1866245.331 -22328549.372 12226208.862 10 0 59913 38700.00000 0 -1386293.899 -20724562.225 14834089.417 10 0 59913 39600.00000 0 -659187.143 -18886746.356 17154369.715 10 0 59913 40500.00000 0 330798.242 -16876361.646 19142034.900 10 0 59913 41400.00000 0 1587103.327 -14758530.781 20758499.330 10 0 59913 42300.00000 0 3100495.487 -12599619.714 21972353.229 10 0 59913 43200.00000 0 4849214.128 -10464583.141 22759972.402 10 0 59913 44100.00000 0 6799649.235 -8414384.879 23105979.447 10 0 59913 45000.00000 0 8907526.149 -6503599.902 23003547.552 10 0 59913 45900.00000 0 11119549.097 -4778297.239 22454540.768 10 0 59913 46800.00000 0 13375436.763 -3274291.413 21469487.553 10 0 59913 47700.00000 0 15610266.634 -2015834.965 20067387.319 10 0 59913 48600.00000 0 17757031.762 -1014806.357 18275352.796 10 0 59913 49500.00000 0 19749304.227 -270427.000 16128094.065 10 0 59913 50400.00000 0 21523894.581 230480.814 13667253.228 10 0 59913 51300.00000 0 23023396.182 512706.101 10940601.699 10 0 59913 52200.00000 0 24198507.627 611364.857 8001114.972 10 0 59913 53100.00000 0 25010035.227 570173.720 4905942.549 10 0 59913 54000.00000 0 25430490.715 439355.124 1715293.043 10 0 59913 54900.00000 0 25445216.120 273263.383 -1508743.478 10 0 59913 55800.00000 0 25052987.694 127833.260 -4703412.163 10 0 59913 56700.00000 0 24266072.886 57960.402 -7806524.404 10 0 59913 57600.00000 0 23109737.643 114926.078 -10757678.144 10 0 59913 58500.00000 0 21621224.781 343976.765 -13499442.448 10 0 59913 59400.00000 0 19848246.741 782162.526 -15978482.327 10 0 59913 60300.00000 0 17847056.603 1456526.876 -18146601.143 10 0 59913 61200.00000 0 15680179.093 2382725.711 -19961679.809 10 0 59913 62100.00000 0 13413897.418 3564134.419 -21388494.429 10 0 59913 63000.00000 0 11115601.704 4991481.401 -22399396.782 10 0 59913 63900.00000 0 8851110.299 6643023.829 -22974844.901 10 0 59913 64800.00000 0 6682075.779 8485258.538 -23103774.243 10 0 59913 65700.00000 0 4663583.405 10474138.486 -22783803.112 10 0 59913 66600.00000 0 2842041.395 12556744.009 -22021269.204 10 0 59913 67500.00000 0 1253449.662 14673339.221 -20831097.378 10 0 59913 68400.00000 0 -77882.411 16759727.973 -19236501.834 10 0 59913 69300.00000 0 -1140117.425 18749811.295 -17268528.967 10 0 59913 70200.00000 0 -1934139.984 20578240.062 -14965449.993 10 0 59913 71100.00000 0 -2473266.801 22183052.655 -12372015.225 10 0 59913 72000.00000 0 -2782430.783 23508187.950 -9538584.441 10 0 59913 72900.00000 0 -2896875.026 24505769.291 -6520150.083 10 0 59913 73800.00000 0 -2860412.915 25138064.478 -3375272.033 10 0 59913 74700.00000 0 -2723328.596 25379040.303 -164944.503 10 0 59913 75600.00000 0 -2540007.041 25215447.019 3048583.184 10 0 59913 76500.00000 0 -2366394.128 24647387.699 6203009.276 10 0 59913 77400.00000 0 -2257394.161 23688348.814 9237182.551 10 0 59913 78300.00000 0 -2264314.787 22364690.843 12092282.501 10 0 59913 79200.00000 0 -2432467.245 20714620.050 14712954.235 10 0 59913 80100.00000 0 -2799023.222 18786684.139 17048376.399 10 0 59913 81000.00000 0 -3391218.935 16637854.149 19053241.954 10 0 59913 81900.00000 0 -4224982.543 14331271.908 20688633.305 10 0 59913 82800.00000 0 -5304043.336 11933756.270 21922775.263 10 0 59913 83700.00000 0 -6619561.202 9513171.056 22731651.710 10 0 59913 84600.00000 0 -8150293.324 7135763.352 23099474.259 10 0 59913 85500.00000 0 -9863292.703 4863582.023 23018993.879 99